Regional Weather Roundup
Issued by NWS

Home | Current Version | Previous Version | Graphics & Text | Print | Product List | Glossary On
Versions: 1 2 3 4 5 6 7 8 9 10 11 12 13 14 15 16 17 18 19 20 21 22 23 24 25 26 27 28 29 30 31 32 33 34 35 36 37 38 39 40 41 42 43 44 45 46 47 48 49 50
000
ASUS45 KABQ 280010
RWRNM
NEW MEXICO REGIONAL WEATHER ROUNDUP
NATIONAL WEATHER SERVICE ALBUQUERQUE NM
500 PM MST MON FEB 27 2017

NOTE: "FAIR" MEANS FEW OR NO CLOUDS BELOW 12,000 FEET AGL WITH NO
       SIGNIFICANT WEATHER OR OBSTRUCTIONS TO VISION.

      THIS PRODUCT IS RELEASED AS TWO VERSIONS.  ONE VERSION NEAR
      THE TOP OF THE HOUR CONTAINING PRELIMINARY DATA FROM ALBUQUERQUE
      AND OTHER STATIONS.  A FINAL VERSION WITH ADDITIONAL DATA IS
      ISSUED ABOUT 10 MINUTES AFTER THE HOUR.

NMZ501-503-504-510>518-280100-
NORTHWEST PLATEAU/NORTHCENTRAL MOUNTAINS

CITY           SKY/WX    TMP DP  RH WIND       PRES   REMARKS
FARMINGTON     CLOUDY    46  24  42 SW10      29.81S
6HR MIN TEMP:  43; 6HR MAX TEMP:  49;

LOS ALAMOS     CLOUDY    43  19  39 SW15G24   29.87S
SANTA FE       FAIR      50  14  23 SW10      29.84F
6HR MIN TEMP:  45; 6HR MAX TEMP:  53;

TAOS             N/A     37  18  44 NW15G22   29.88R WCI  28
ANGEL FIRE     CLOUDY    35  15  43 W20G31    29.86R WCI  24

$$
NMZ402-403-502-505>509-280100-
WESTCENTRAL MOUNTAINS/SOUTHWEST MOUNTAINS

CITY           SKY/WX    TMP DP  RH WIND       PRES   REMARKS
GALLUP         RAIN      39  35  86 SW24      29.89S WCI  28
6HR MIN TEMP:  39; 6HR MAX TEMP:  48; 6HR PCP:  0.02;

GRANTS         PTSUNNY   47  28  48 SW18G26   29.91R
SILVER CITY    FAIR      56  20  24 NW14      29.94F

$$
NMZ407-409-411-412-280100-
SOUTHERN DESERTS

CITY           SKY/WX    TMP DP  RH WIND       PRES   REMARKS
DEMING         FAIR      63  22  20 W13       29.91S
6HR MIN TEMP:  57; 6HR MAX TEMP:  66;

LAS CRUCES     FAIR      65  19  17 W15G21    29.92R
HOLLOMAN AFB   FAIR      65  20  18 S9        29.93F
ALAMOGORDO     FAIR      64  23  20 S10       29.92S
T OR C         FAIR      63  10  12 W16G25    29.87R
6HR MIN TEMP:  55; 6HR MAX TEMP:  67;


$$
NMZ519>523-280100-
CENTRAL VALLEYS/CENTRAL HIGHLANDS

CITY           SKY/WX    TMP DP  RH WIND       PRES   REMARKS
ALBUQUERQUE    PTSUNNY   59   7  12 SW10      29.82F
6HR MIN TEMP:  48; 6HR MAX TEMP:  60;

DOUBLE EAGLE   PTSUNNY   57  12  17 W20       29.84S
MORIARTY ARPT  FAIR      55  14  20 W13       29.85F
6HR MIN TEMP:  53; 6HR MAX TEMP:  60;

CLINES CORNERS FAIR      50  12  21 W28G36    29.86F
6HR MIN TEMP:  46; 6HR MAX TEMP:  54;

BELEN          FAIR      63   5  10 SW26G32   29.82S
6HR MIN TEMP:  52; 6HR MAX TEMP:  63;

SOCORRO        FAIR      62   5  10 S12       29.83R
6HR MIN TEMP:  55; 6HR MAX TEMP:  66;


$$
NMZ524>526-539-540-280100-
SOUTHCENTRAL MOUNTAINS

CITY           SKY/WX    TMP DP  RH WIND       PRES   REMARKS
RUIDOSO        FAIR      48  10  21 W18G29    29.93S

$$
NMZ527>531-280100-
NORTHEAST HIGHLANDS/NORTHEAST PLAINS

CITY           SKY/WX    TMP DP  RH WIND       PRES   REMARKS
LAS VEGAS      FAIR      49  12  22 W23G31    29.81S
6HR MIN TEMP:  46; 6HR MAX TEMP:  52;

RATON          FAIR      50   9  19 W28G53    29.73S
6HR MIN TEMP:  49; 6HR MAX TEMP:  58;

CLAYTON        FAIR      62   4  10 W24G30    29.70R
6HR MIN TEMP:  54; 6HR MAX TEMP:  66;


$$
NMZ532>537-280100-
EASTCENTRAL PLAINS

CITY           SKY/WX    TMP DP  RH WIND       PRES   REMARKS
TUCUMCARI      FAIR      68  10  10 W22G30    29.74S
6HR MIN TEMP:  62; 6HR MAX TEMP:  72;

CANNON AFB     FAIR      65  13  13 SW12      29.80R
6HR MIN TEMP:  61; 6HR MAX TEMP:  68;

CLOVIS AIRPORT FAIR      64  12  13 W14       29.81R

$$
NMZ028-029-538-280100-
SOUTHEAST PLAINS

CITY           SKY/WX    TMP DP  RH WIND       PRES   REMARKS
ROSWELL        FAIR      71  -1   6 W20         N/A
6HR MIN TEMP:  64; 6HR MAX TEMP:  79;

ARTESIA        FAIR      68  19  15 SW26G36   29.85R
CARLSBAD       FAIR      71  19  14 W16       29.86R
6HR MIN TEMP:  70; 6HR MAX TEMP:  73;

HOBBS          CLEAR     66  18  15 SW14      29.87R


$$




USA.gov is the U.S. government's official web portal to all federal, state and local government web resources and services.